Location: Bonny Doon Airfield
(37.0704°N, 122.1252°W)
Time: 21:08:07
(UTC-07:00)

Vanguard 1 Rocket - All Passes

Search period start: 17 August 2018 00:00
Search period end: 27 August 2018 00:00
Orbit: 650 x 4226 km, 34.3° (Epoch: 16 August)

Date Brightness Start Highest point End Pass type
(mag) Time Alt. Az. Time Alt. Az. Time Alt. Az.
17 Aug - 01:28:08 10° SW 01:41:45 60° SSE 02:05:25 10° ENE visible
17 Aug - 03:53:44 10° WSW 04:12:52 82° S 04:39:38 10° E visible
17 Aug - 06:22:35 10° W 06:46:45 74° SSW 07:10:32 10° ESE daylight
17 Aug - 08:54:45 10° WNW 09:17:58 43° SW 09:35:58 10° SSE daylight
17 Aug - 11:40:18 10° WSW 11:44:27 11° WSW 11:48:19 10° SW daylight
18 Aug - 00:18:10 10° SSW 00:29:20 43° SE 00:48:53 10° ENE visible
18 Aug - 02:41:56 10° WSW 02:57:59 77° SSE 03:24:08 10° E visible
18 Aug - 05:09:18 10° W 05:31:07 81° S 05:57:01 10° ESE visible
18 Aug - 07:39:34 10° WNW 08:04:01 57° SSW 08:25:08 10° SE daylight
18 Aug - 10:15:37 10° W 10:32:32 23° SW 10:46:03 10° S daylight
18 Aug - 23:09:24 10° S 23:18:01 27° SE 23:31:42 10° E visible
19 Aug - 01:30:54 10° SW 01:44:11 66° SSE 02:08:02 10° E visible
19 Aug - 03:56:46 10° W 04:15:35 83° S 04:42:22 10° E visible
19 Aug - 06:25:30 10° W 06:49:07 69° SSW 07:13:01 10° SE daylight
19 Aug - 08:57:58 10° W 09:19:46 37° SW 09:37:33 10° SSE daylight
19 Aug - 22:03:42 10° SE 22:07:28 12° ESE 22:11:59 10° ESE visible
20 Aug - 00:20:40 10° SW 00:31:35 50° SE 00:51:37 10° ENE visible
20 Aug - 02:44:57 10° WSW 03:00:41 80° S 03:26:48 10° E visible
20 Aug - 05:12:18 10° W 05:33:41 77° SSW 05:59:38 10° ESE visible
20 Aug - 07:42:31 10° WNW 08:06:01 50° SW 08:27:08 10° SSE daylight
20 Aug - 10:20:40 10° W 10:34:13 18° SW 10:45:47 10° SSW daylight
20 Aug - 23:11:24 10° SSW 23:20:06 33° SE 23:34:56 10° E visible
21 Aug - 01:33:49 10° WSW 01:46:47 72° SSE 02:10:39 10° E visible
21 Aug - 03:59:50 10° W 04:18:18 82° S 04:45:03 10° ESE visible
21 Aug - 06:28:26 10° WNW 06:51:23 63° SSW 07:15:17 10° SE daylight
21 Aug - 09:01:32 10° W 09:21:31 30° SW 09:38:40 10° S daylight
21 Aug - 22:03:51 10° SSE 22:09:29 17° SE 22:17:17 10° E visible
22 Aug - 00:23:22 10° SW 00:34:01 58° SSE 00:54:17 10° ENE visible
22 Aug - 02:48:01 10° W 03:03:28 82° S 03:29:28 10° E visible
22 Aug - 05:15:18 10° W 05:36:12 73° SSW 06:02:06 10° ESE visible
22 Aug - 07:45:38 10° WNW 08:07:57 43° SW 08:28:48 10° SSE daylight
22 Aug - 10:28:12 10° WSW 10:35:56 12° WSW 10:43:06 10° SW daylight
22 Aug - 23:13:44 10° SSW 23:22:20 40° SE 23:37:54 10° E visible
23 Aug - 01:36:50 10° WSW 01:49:30 76° SSE 02:13:16 10° E visible
23 Aug - 04:02:55 10° W 04:21:00 80° S 04:47:39 10° ESE visible
23 Aug - 06:31:26 10° WNW 06:53:33 56° SSW 07:17:18 10° SE daylight
23 Aug - 09:05:40 10° W 09:23:16 24° SW 09:39:07 10° S daylight
23 Aug - 22:05:17 10° S 22:11:37 22° SE 22:21:15 10° E visible
24 Aug - 00:26:15 10° SW 00:36:36 64° SSE 00:56:54 10° E visible
24 Aug - 02:51:09 10° W 03:06:16 82° S 03:32:07 10° E visible
24 Aug - 05:18:20 10° W 05:38:38 67° SSW 06:04:23 10° SE visible
24 Aug - 07:49:00 10° W 08:09:51 36° SW 08:30:05 10° SSE daylight
24 Aug - 23:16:20 10° SW 23:24:46 47° SE 23:40:43 10° E visible
25 Aug - 01:39:56 10° WSW 01:52:20 80° S 02:15:53 10° E visible
25 Aug - 04:06:00 10° W 04:23:40 76° SSW 04:50:07 10° ESE visible
25 Aug - 06:34:33 10° W 06:55:41 49° SW 07:19:02 10° SSE daylight
25 Aug - 09:10:51 10° W 09:25:04 18° SW 09:38:28 10° SSW daylight
25 Aug - 22:07:18 10° S 22:13:51 28° SE 22:24:40 10° E visible
26 Aug - 00:29:15 10° WSW 00:39:21 70° SSE 00:59:31 10° E visible
26 Aug - 02:54:17 10° W 03:09:05 81° S 03:34:41 10° ESE visible
26 Aug - 05:21:23 10° W 05:41:01 61° SSW 06:06:25 10° SE visible
26 Aug - 07:52:45 10° W 08:11:45 30° SW 08:30:49 10° S daylight
26 Aug - 21:00:30 10° SSE 21:03:36 13° SE 21:07:25 10° ESE visible
26 Aug - 23:19:07 10° SW 23:27:21 54° SSE 23:43:27 10° E visible
